{"data":{"norad_id":52548,"epoch":"2026-05-25T00:48:03.105792Z","epoch_age_seconds":72400,"freshness":"FRESH","line1":"1 52548U 22051R   26145.03336928 -.00000730  00000+0 -27821-4 0  9991","line2":"2 52548  53.2133 146.4007 0001054  62.5845 297.5254 15.08838321222970","mean_motion":15.08838321,"eccentricity":0.0001054,"inclination_deg":53.2133,"raan_deg":146.4007,"arg_perigee_deg":62.5845,"mean_anomaly_deg":297.5254,"bstar":-2.7821e-5,"rev_number":22297,"period_min":95.437660878445,"perigee_km":539.01937586625,"apogee_km":540.47766613408,"semimajor_km":6917.8855210002,"source":"CELESTRAK","updated_at":"2026-05-25T13:38:17.163799Z"}}